#timestamp,LO_Frequency,Hit 
1501236015.7,286046527.7,N
1501236035.5,286046529.9,N
1501236055.3,286046530.0,N
1501236075.2,286046528.3,N
1501236095.9,286046528.7,N
1501236115.7,286046526.9,N
1501236135.5,286046526.5,N
1501236155.4,286046531.4,N
1501236175.2,286046529.8,N
1501236195.0,286046534.5,N
1501236195.9,286046534.5,N
1501236215.8,286046534.9,N
1501236235.6,286046533.1,N
1501236255.4,286046532.5,N
1501236275.3,286046531.3,N
1501236295.1,286046532.3,N
1501236296.0,286046532.3,N
1501236315.8,286046528.1,N
1501236335.7,286046526.1,N
1501236355.5,286046528.1,N
1501236375.3,286046530.9,N
1501236395.2,286046559.4,N
1501236415.9,286046556.6,N
1501236435.7,286046558.1,N
1501236455.6,286046557.8,N
1501236475.4,286046555.1,N
1501236495.2,286046556.3,N
1501236515.0,286046556.0,N
1501236515.9,286046556.0,N
1501236535.8,286046557.3,N
1501236555.6,286046555.8,N
1501236575.4,286046555.5,N
1501236595.3,286046554.3,N
1501236615.1,286046555.0,N
1501236616.0,286046555.0,N
1501236635.8,286046558.0,N
1501236655.7,286046557.5,N
1501236675.5,286046552.2,N
1501236695.3,286046557.9,N
1501236715.2,286046556.9,N
1501236735.9,286046559.2,N
1501236755.7,286046561.2,N
1501236775.6,286046556.5,N
1501236795.4,286046559.6,N
1501236815.2,286046558.2,N
1501236835.0,286046558.6,N
1501236835.9,286046558.6,N
1501236855.8,286046557.2,N
1501236875.6,286046557.4,N
1501236895.4,286046561.2,N
1501236915.3,286046560.4,N
1501236935.1,286046557.1,N
1501236936.0,286046557.1,N
1501236955.8,286046558.6,N
1501236975.7,286046564.3,N
1501236995.5,286046560.0,N
1501237015.3,286046562.7,N
1501237035.2,286046561.5,N
1501237055.9,286046562.4,N
1501237075.7,286046561.5,N
1501237095.5,286046563.8,N
1501237115.4,286046560.2,N
1501237135.2,286046560.9,N
1501237155.0,286046555.0,N
1501237155.9,286046555.0,N
1501237175.8,286046557.7,N
1501237195.6,286046553.5,N
1501237215.4,286046554.1,N
1501237235.3,286046557.7,N
1501237255.1,286046556.1,N
1501237256.0,286046556.1,N
1501237275.8,286046554.1,N
1501237295.7,286046555.2,N
1501237315.5,286046553.7,N
1501237335.3,286046556.4,N
1501237355.2,286046555.6,N
1501237375.9,286046553.7,N
1501237395.7,286046554.6,N
1501237415.6,286046552.6,N
1501237435.4,286046552.9,N
1501237455.2,286046553.1,N
1501237475.0,286046550.9,N
1501237475.9,286046550.9,N
1501237495.8,286046550.4,N
1501237515.6,286046552.7,N
1501237535.4,286046550.2,N
1501237555.3,286046553.1,N
1501237575.1,286046548.6,N
1501237576.0,286046548.6,N
1501237595.8,286046547.9,N
1501237615.7,286046549.7,N
1501237635.5,286046547.0,N
1501237655.3,286046549.2,N
1501237675.2,286046549.2,N
1501237695.9,286046550.4,N
1501237715.7,286046549.3,N
1501237735.5,286046547.3,N
1501237755.4,286046545.4,N
1501237775.2,286046546.7,N
1501237795.0,286046546.7,N
1501237795.9,286046546.7,N
1501237815.8,286046545.5,N
1501237835.6,286046545.8,N
1501237855.4,286046546.8,N
1501237875.3,286046546.3,N
1501237895.1,286046549.9,N
1501237896.0,286046549.9,N
1501237915.8,286046551.5,N
1501237935.7,286046549.2,N
1501237955.5,286046549.3,N
1501237975.3,286046545.5,N
1501237995.2,286046549.6,N
1501238015.9,286046546.6,N
1501238035.7,286046542.8,N
1501238055.5,286046543.3,N
1501238075.4,286046543.1,N
1501238095.2,286046545.2,N
1501238115.0,286046542.7,N
1501238115.9,286046542.7,N
1501238135.8,286046542.8,N
1501238155.6,286046543.3,N
1501238175.4,286046543.3,N
1501238195.3,286046540.9,N
1501238215.1,286046543.2,N
1501238216.0,286046543.2,N
1501238235.8,286046543.1,N
1501238255.7,286046541.2,N
1501238275.5,286046539.0,N
1501238295.3,286046539.9,N
1501238315.2,286046538.0,N
1501238335.9,286046538.5,N
1501238355.7,286046537.7,N
1501238375.5,286046537.7,N
1501238395.4,286046538.3,N
1501238415.2,286046534.9,N
1501238435.0,286046532.8,N
1501238435.9,286046532.8,N
1501238455.8,286046531.9,N
1501238475.6,286046530.6,N
1501238495.4,286046531.8,N
1501238515.3,286046530.5,N
1501238535.1,286046530.3,N
1501238555.8,286046527.9,N
1501238575.7,286046526.9,N
1501238595.5,286046526.2,N
1501238615.3,286046525.6,N
1501238635.2,286046523.4,N
1501238655.9,286046527.5,N
1501238675.7,286046528.2,N
1501238695.5,286046526.9,N
1501238715.4,286046527.1,N
1501238735.2,286046523.2,N
1501238755.0,286046523.3,N
1501238755.9,286046523.3,N
1501238775.8,286046530.3,N
1501238795.6,286046532.1,N
1501238815.4,286046531.7,N
1501238835.3,286046534.9,N
1501238855.1,286046533.5,N
1501238856.0,286046533.5,N
1501238875.8,286046536.7,N
1501238895.7,286046536.5,N
1501238915.5,286046536.7,N
1501238935.3,286046538.6,N
1501238955.2,286046538.3,N
1501238975.9,286046540.4,N
1501238995.7,286046537.8,N
1501239015.5,286046543.6,N
1501239035.4,286046543.1,N
1501239055.2,286046542.8,N
1501239075.0,286046541.5,N
1501239075.9,286046541.5,N
1501239095.8,286046539.5,N
1501239115.6,286046539.7,N
1501239135.4,286046534.1,N
1501239155.3,286046540.4,N
1501239175.1,286046536.0,N
1501239195.8,286046534.2,N
1501239215.7,286046536.3,N
1501239235.5,286046537.6,N
1501239255.3,286046538.4,N
1501239275.2,286046540.3,N
1501239295.9,286046540.5,N
1501239315.7,286046540.9,N
1501239335.5,286046541.8,N
1501239355.4,286046543.5,N
1501239375.2,286046541.1,N
1501239395.0,286046537.8,N
1501239395.9,286046537.8,N
1501239415.8,286046540.7,N
1501239435.6,286046540.8,N
1501239455.4,286046541.0,N
1501239475.3,286046541.9,N
1501239495.1,286046542.0,N
1501239496.0,286046542.0,N
1501239515.8,286046540.0,N
1501239535.7,286046538.5,N
1501239555.5,286046537.3,N
1501239575.3,286046538.2,N
1501239595.1,286046535.1,N
